sat.trackr.live / text

‹ back to catalog

GEESAT-6 04

NORAD 65716 · 2025-214E

PAYLOAD ACTIVE UNKNOWN

§ Identity

Operator
Country
PRC
Launch date
2025-09-24
Launch site
YSLA
Launch vehicle
Mass (kg)
RCS (m²)

External: N2YO · Heavens-Above · Gunter

§ Orbital elements

Epoch: 2026-09-20T14:36:37.744416Z

Period
97.06 min
Inclination
49.9846°
Eccentricity
0.0009324
Mean motion
14.83611948 rev/d
Perigee alt
611.4 km
Apogee alt
624.5 km
Semi-major
6,996.1 km
B*
1.5611e-4
RAAN
226.0015°
Arg perigee
234.5675°
Mean anomaly
125.4393°
Rev number
5,367

§ Raw data

GEESAT-6 041 65716U 25214E   26263.60877019  .00001074  00000+0  15611-3 0  99942 65716  49.9846 226.0015 0009324 234.5675 125.4393 14.83611948 53676

JSON: /api/v1/satellites/65716 · /tle

For live sub-satellite position, see the globe view (requires WebGL).

§ Visibility from observer

Set your observer location to see the next 7 days of passes ≥ 10°. The values pass through the URL so the page stays shareable.

No JS? Fill the form by hand. The geolocation button needs JavaScript.